Provo, UT

6:14 AM MST on February 09, 2016 (GMT -0700)
Provo Municipal

Weather History for KPVU - January, 2014

Change the Weather History Date:

Saturday, January 25, 2014

  Actual Average Record
Temperature  
Mean Temperature 19 °F -  
Max Temperature 33 °F 36 °F 48 °F (1987)
Min Temperature 5 °F 22 °F -5 °F (1985)
Degree Days  
Heating Degree Days 46    
Moisture  
Dew Point 12 °F    
Average Humidity 82    
Maximum Humidity 100    
Minimum Humidity 55    
Precipitation  
Precipitation 0.00 in - - ()
Sea Level Pressure  
Sea Level Pressure 30.39 in    
Wind  
Wind Speed 1 mph (NW)    
Max Wind Speed 5 mph    
Max Gust Speed -    
Visibility 8 miles    
Events      
Averages and records for this station are not official NWS values.
T = Trace of Precipitation, MM = Missing Value Source: NWS Daily Summary

Daily Weather History Graph

Daily Weather History Graph

Search for Another Location

Airport or City:

Trip Planner

Search our weather history database for the weather conditions in past years. The results will help you decide how hot, cold, wet, or windy it might be!

Date:

Astronomy

Jan. 25, 2014 Rise Set
Actual Time 7:41 AM MST 5:37 PM MST
Civil Twilight 7:12 AM MST 6:06 PM MST
Nautical Twilight 6:39 AM MST 6:39 PM MST
Astronomical Twilight 6:07 AM MST 7:11 PM MST
Moon 2:17 AM MST (1/25) 12:40 PM MST (1/25)
Length of Visible Light 10h 54m
Length of Day
9h 55m
Waning Crescent, 33% of the Moon is Illuminated
Jan 25
Waning Crescent
Jan 30
New
Feb 6
First Quarter
Feb 14
Full
Feb 22
Last Quarter

Hourly Weather History & Observations

Time (MST) Temp. Windchill Dew Point Humidity Pressure Visibility Wind Dir Wind Speed Gust Speed Precip Events Conditions
12:15 AM 15.8 °F - 8.6 °F 73% 30.49 in 10.0 mi Calm Calm - N/A   Clear
12:35 AM 15.8 °F - 8.6 °F 73% 30.49 in 10.0 mi Calm Calm - N/A   Clear
12:55 AM 10.4 °F - 5.0 °F 79% 30.48 in 8.0 mi Calm Calm - N/A   Clear
1:15 AM 12.2 °F - 8.6 °F 85% 30.48 in 9.0 mi Calm Calm - N/A   Clear
1:35 AM 12.2 °F 6.1 °F 10.4 °F 92% 30.48 in 10.0 mi SSE 3.5 mph - N/A   Clear
1:55 AM 12.2 °F 4.3 °F 8.6 °F 85% 30.47 in 6.0 mi SW 4.6 mph - N/A   Clear
2:15 AM 12.2 °F - 8.6 °F 85% 30.47 in 6.0 mi Calm Calm - N/A   Clear
2:35 AM 12.2 °F - 6.8 °F 79% 30.47 in 5.0 mi Calm Calm - N/A   Clear
2:55 AM 14.0 °F - 12.2 °F 93% 30.47 in 5.0 mi Calm Calm - N/A   Clear
3:15 AM 14.0 °F - 12.2 °F 93% 30.47 in 5.0 mi Calm Calm - N/A   Clear
3:35 AM 8.6 °F - 3.2 °F 79% 30.47 in 6.0 mi Calm Calm - N/A   Clear
3:55 AM 8.6 °F - 8.6 °F 100% 30.46 in 6.0 mi Calm Calm - N/A   Clear
4:15 AM 10.4 °F - 8.6 °F 92% 30.46 in 6.0 mi Calm Calm - N/A   Clear
4:35 AM 12.2 °F 6.1 °F 10.4 °F 92% 30.45 in 5.0 mi NNE 3.5 mph - N/A   Clear
4:55 AM 12.2 °F - 10.4 °F 92% 30.45 in 6.0 mi Calm Calm - N/A   Clear
5:15 AM 6.8 °F - -0.4 °F 72% 30.45 in 7.0 mi Calm Calm - N/A   Clear
5:35 AM 5.0 °F -4.1 °F 1.4 °F 85% 30.45 in 3.0 mi NW 4.6 mph - N/A   Clear
5:55 AM 8.6 °F 2.0 °F 8.6 °F 100% 30.45 in 5.0 mi North 3.5 mph - N/A   Clear
6:15 AM 8.6 °F 2.0 °F 8.6 °F 100% 30.45 in 5.0 mi NNW 3.5 mph - N/A   Clear
6:35 AM 10.4 °F - 8.6 °F 92% 30.44 in 4.0 mi Calm Calm - N/A   Clear
7:55 AM 6.8 °F - 3.2 °F 85% 30.45 in 10.0 mi Calm Calm - N/A   Clear
8:50 AM 8.6 °F - 6.8 °F 92% 30.44 in 10.0 mi Calm Calm - N/A   Clear
9:51 AM 17.6 °F - 17.6 °F 100% 30.45 in 10.0 mi Calm Calm - N/A   Clear
10:49 AM 23.0 °F - 17.6 °F 80% 30.44 in 7.0 mi Calm Calm - N/A   Haze
11:49 AM 24.8 °F - 17.6 °F 74% 30.42 in 6.0 mi Calm Calm - N/A   Haze
12:51 PM 26.6 °F - 17.6 °F 69% 30.38 in 6.0 mi Calm Calm - N/A   Haze
1:55 PM 28.4 °F 24.6 °F 17.6 °F 64% 30.35 in 8.0 mi West 3.5 mph - N/A   Haze
2:56 PM 30.2 °F - 15.8 °F 55% 30.34 in 8.0 mi Calm Calm - N/A   Partly Cloudy
3:57 PM 32.0 °F - 17.6 °F 55% 30.33 in 8.0 mi Calm Calm - N/A   Partly Cloudy
4:47 PM 33.8 °F - 19.4 °F 56% 30.31 in 10.0 mi Calm Calm - N/A   Partly Cloudy
5:47 PM 24.8 °F - 15.8 °F 69% 30.30 in 10.0 mi Calm Calm - N/A   Partly Cloudy
6:54 PM 24.8 °F - 12.2 °F 59% 30.31 in 10.0 mi Calm Calm - N/A   Partly Cloudy
7:52 PM 23.0 °F - 15.8 °F 74% 30.30 in 10.0 mi Calm Calm - N/A   Partly Cloudy
8:51 PM 19.4 °F - 12.2 °F 74% 30.30 in 10.0 mi Calm Calm - N/A   Partly Cloudy
9:15 PM 19.4 °F - 15.8 °F 86% 30.29 in 10.0 mi Calm Calm - N/A   Clear
9:35 PM 19.4 °F - 15.8 °F 86% 30.29 in 10.0 mi Calm Calm - N/A   Clear
9:55 PM 19.4 °F - 15.8 °F 86% 30.28 in 10.0 mi Calm Calm - N/A   Clear
10:15 PM 19.4 °F - 15.8 °F 86% 30.28 in 10.0 mi Calm Calm - N/A   Clear
10:35 PM 19.4 °F - 14.0 °F 80% 30.28 in 10.0 mi Calm Calm - N/A   Clear
10:55 PM 17.6 °F - 12.2 °F 79% 30.28 in 10.0 mi Calm Calm - N/A   Clear
11:15 PM 17.6 °F - 14.0 °F 86% 30.28 in 9.0 mi Calm Calm - N/A   Clear
11:35 PM 17.6 °F - 15.8 °F 93% 30.28 in 9.0 mi Calm Calm - N/A   Clear
11:55 PM 17.6 °F - 15.8 °F 93% 30.28 in 9.0 mi Calm Calm - N/A   Clear